GFSNW_prec_cloud_021.txt.gz
Cloud_Cover
100 100 100 100 100 100 100 100 100 100 100 100 100 100 100 65 1 0 4 5 0 0 2 5 5 14 8 5 6 6 5 5 2 0 1 0 0 5 5 0 2 0 0 0
100 100 100 100 100 100 100 100 100 100 100 100 100 100 100 4 5 5 5 4 2 6 62 37 10 5 3 4 0 0 0 0 3 5 1 0 0 0 0 0 0 0 25 3
100 39 100 100 100 100 100 100 100 100 100 72 98 100 56 5 5 36 5 5 8 78 68 53 5 4 0 0 0 0 0 0 1 5 90 37 3 0 4 5 5 5 3 0
100 80 85 100 100 97 100 100 100 100 100 100 94 8 5 0 5 27 2 4 70 86 15 5 5 5 5 0 0 0 0 0 1 5 5 1 5 13 5 5 5 10 0 4
100 100 100 100 100 100 29 68 100 72 6 5 67 37 3 6 12 8 0 6 63 76 5 5 6 5 5 3 0 0 0 0 2 4 0 5 52 14 5 4 5 5 1 10
51 100 100 100 100 35 42 68 74 94 67 4 5 36 5 30 89 32 5 15 67 48 6 5 5 5 2 5 3 5 5 5 5 1 5 6 50 5 5 5 2 0 5 5
89 100 100 100 100 30 5 86 100 99 30 9 72 97 62 78 100 62 45 14 34 10 5 5 5 5 3 0 0 5 0 5 5 13 6 50 7 0 5 5 5 2 5 5
100 100 100 100 100 6 68 100 100 100 66 49 87 100 97 86 100 28 5 8 29 5 5 5 5 5 6 0 0 5 2 4 5 20 4 5 5 22 5 5 5 7 7 5
100 100 100 100 93 37 98 99 100 100 96 67 100 100 88 34 100 18 18 25 43 19 5 5 5 5 0 2 0 5 5 5 5 5 50 63 5 5 5 5 5 39 20 5
100 100 100 100 85 81 97 100 97 100 66 100 100 100 57 100 100 55 76 12 47 46 20 91 5 5 5 5 5 63 5 26 38 5 35 5 5 34 62 41 9 5 5 5
100 100 100 100 94 98 94 70 92 100 80 41 100 89 100 100 100 93 88 13 65 45 29 45 5 31 5 5 5 5 8 15 25 6 63 61 86 78 68 13 6 5 12 6
100 100 100 100 100 100 85 47 3 12 12 37 100 100 100 100 100 45 34 8 11 6 19 92 36 91 90 5 50 17 16 5 15 6 5 5 5 48 5 5 35 16 78 100
100 100 100 100 100 31 9 77 9 11 9 100 100 100 100 100 100 92 9 25 20 78 99 88 28 98 67 86 65 12 9 5 5 5 5 5 5 5 5 5 12 97 43 5
100 100 100 100 42 27 57 100 17 41 77 100 100 100 100 100 99 36 86 99 100 78 45 95 65 88 100 86 13 11 5 5 5 5 5 5 13 24 67 77 5 19 93 5
100 100 100 100 100 100 97 100 20 64 100 100 100 100 100 100 76 18 94 21 74 100 88 66 94 97 87 60 34 61 62 5 5 5 63 100 100 99 19 26 100 89 18 6
100 100 100 100 100 100 95 7 8 66 100 78 83 100 100 100 42 12 100 36 98 100 100 100 93 92 25 44 43 76 22 36 91 100 100 100 69 5 5 90 100 57 47 24
100 100 100 100 100 99 72 84 98 99 100 100 100 100 100 70 43 32 58 59 84 99 97 73 61 48 30 82 60 100 100 100 100 100 72 51 9 19 24 18 68 59 78 92
100 100 86 60 96 100 100 100 100 100 100 100 100 100 100 19 73 79 73 74 44 8 34 55 68 68 76 87 100 100 100 100 72 5 5 5 5 36 80 91 90 84 76 79
100 100 100 100 91 89 82 91 100 100 84 100 100 100 100 25 98 77 88 60 80 50 99 82 56 100 97 100 100 100 75 6 30 11 10 54 94 96 93 98 99 99 98 97
100 100 100 100 100 100 100 100 100 100 97 94 100 85 100 58 92 98 76 99 82 98 88 58 99 100 100 100 100 66 14 35 61 90 100 100 100 96 100 100 100 100 100 100
100 100 100 100 100 100 100 100 100 92 96 80 100 100 100 97 90 99 95 100 88 100 76 98 99 100 100 89 84 76 52 55 92 91 82 99 100 100 100 100 73 99 100 100
100 100 100 100 100 100 99 100 97 92 100 100 100 100 100 100 100 89 75 95 93 98 80 95 86 100 100 100 100 100 88 91 94 100 100 100 100 100 100 100 100 100 100 100
100 100 100 100 100 100 100 100 100 100 100 100 100 100 100 100 100 100 100 97 91 83 93 86 95 100 100 100 100 100 100 100 100 100 100 100 100 100 100 100 100 100 99 93
100 100 100 100 100 100 100 100 100 100 100 100 100 100 100 100 100 100 100 100 86 100 100 100 100 100 100 100 100 100 100 100 100 100 100 100 100 100 100 100 100 99 87 10
100 100 100 100 100 100 100 100 100 100 100 100 100 100 100 100 100 100 100 100 100 100 99 100 100 100 100 100 100 100 100 100 100 100 100 98 85 91 81 52 5 9 8 8
100 99 100 100 100 100 100 100 100 100 100 100 100 100 100 100 100 100 100 98 100 100 100 100 100 100 100 100 100 100 100 100 100 100 77 78 88 78 54 7 5 5 5 5
100 100 100 100 100 100 100 100 100 100 100 100 100 100 100 100 100 100 100 100 100 100 100 100 100 100 100 100 100 100 100 88 62 73 94 98 54 5 5 1 1 3 5 5

GFSNW_prec_cloud_024.txt.gz
Cloud_Cover
100 100 15 5 61 93 100 100 100 100 100 54 98 14 100 100 100 83 80 76 98 4 99 5 12 30 94 3 5 5 95 100 73 42 100 28 7 42 16 44 8 0 0 0
100 100 79 3 95 100 100 100 81 100 100 68 82 99 100 100 100 100 100 98 100 3 5 19 2 35 5 13 3 3 4 4 5 45 31 15 66 27 4 70 5 0 23 0
100 100 100 6 76 100 100 100 96 100 79 65 93 100 100 100 92 99 99 100 81 5 6 4 5 12 12 22 68 9 23 5 5 3 10 65 89 9 0 3 0 0 0 0
100 100 100 38 77 100 100 100 7 98 100 63 96 100 100 100 100 100 100 89 2 32 15 5 5 13 39 6 0 1 0 0 0 1 16 69 90 40 17 5 0 0 0 0
100 100 100 100 100 100 100 78 87 100 99 100 100 100 100 100 100 29 62 61 5 70 13 4 5 44 5 4 0 0 0 0 0 0 0 0 0 3 0 0 3 5 3 5
100 100 84 100 100 100 100 86 100 100 100 100 100 100 100 100 100 100 100 5 23 42 94 48 10 10 100 53 4 4 4 0 0 0 0 0 0 0 0 0 3 4 5 27
56 95 6 99 100 100 67 79 84 100 100 100 100 100 100 100 100 100 64 5 80 73 12 5 5 5 10 5 5 5 0 0 0 0 0 3 0 0 0 5 3 0 47 93
31 74 5 100 100 100 88 93 58 98 100 100 100 100 100 21 34 100 36 5 75 27 5 7 5 5 1 5 5 4 1 0 0 36 0 0 0 0 0 5 3 6 97 6
19 5 8 100 100 100 100 49 74 100 36 4 96 100 100 5 98 95 14 62 39 28 5 57 9 5 5 5 5 1 4 0 4 0 0 5 5 1 4 4 5 16 5 5
76 6 73 100 100 93 100 95 62 99 94 78 100 26 31 74 88 99 100 100 68 38 29 91 5 14 5 5 5 5 4 5 38 0 33 5 6 13 23 23 17 5 46 15
5 5 29 100 100 100 100 85 100 99 100 100 100 78 100 100 100 100 99 60 13 41 31 41 5 57 19 5 5 5 5 6 40 6 72 54 6 30 74 5 15 29 5 5
5 5 100 97 100 99 100 99 91 100 100 97 100 37 10 100 100 86 100 100 80 31 8 46 20 93 90 5 16 5 11 17 5 5 5 60 67 97 7 57 100 5 5 5
12 77 100 98 96 100 70 98 25 51 100 100 100 92 100 100 100 92 100 100 83 41 18 20 6 96 6 80 9 6 5 49 6 50 26 5 11 20 66 67 5 83 57 83
100 84 100 53 88 99 100 100 100 100 100 82 71 97 92 100 100 100 100 100 100 92 26 19 82 86 97 97 6 42 15 76 22 91 8 5 5 72 65 5 10 93 100 100
100 50 50 100 100 100 100 100 100 100 36 84 99 66 100 100 100 100 100 100 100 14 24 73 53 100 100 100 99 100 86 47 44 56 7 71 4 15 31 71 93 100 100 81
100 100 100 100 100 100 100 100 100 100 54 7 33 96 100 100 100 100 100 100 100 7 13 95 86 100 90 85 100 94 30 67 6 5 5 5 11 21 96 100 100 100 62 5
100 100 100 92 100 100 100 85 76 45 66 5 93 100 60 100 100 100 100 100 99 13 50 72 63 88 100 100 100 22 100 86 8 34 5 26 7 100 100 100 86 6 52 23
100 100 100 100 94 100 100 86 100 100 69 8 96 100 97 100 100 100 100 100 100 72 50 20 42 48 100 100 100 100 100 100 100 80 36 75 100 100 91 44 35 54 38 31
100 100 88 100 100 100 98 98 100 100 98 96 82 100 100 100 100 100 100 100 100 66 42 67 48 68 68 100 98 84 41 40 84 100 100 100 95 88 100 43 6 5 29 86
100 99 99 100 100 100 98 76 100 100 100 100 100 100 100 98 100 100 100 100 100 82 64 56 87 95 100 100 100 100 100 98 59 75 77 91 100 92 83 96 73 47 78 100
100 92 100 100 100 89 72 100 63 100 100 100 100 98 100 96 100 100 100 91 89 61 47 72 93 98 100 100 100 97 100 89 85 100 100 99 100 100 100 86 100 94 99 100
100 100 100 100 100 100 87 90 76 85 100 100 100 100 100 100 100 100 100 91 94 94 82 93 98 100 100 100 94 70 98 100 100 100 100 100 100 98 100 99 95 98 100 100
100 100 100 100 100 100 100 100 97 100 100 100 100 100 100 100 100 100 100 100 71 88 92 86 79 100 100 100 99 100 100 100 100 100 100 100 100 100 100 100 100 100 100 100
100 100 100 100 100 100 100 100 100 100 100 100 100 100 100 100 100 100 100 100 100 100 100 79 100 100 100 100 100 100 100 100 100 100 100 100 100 100 100 100 100 100 100 35
100 100 100 100 100 100 100 100 100 100 100 100 100 100 100 100 100 100 100 100 96 100 86 100 100 100 100 100 100 100 100 100 100 100 100 100 100 100 100 100 100 100 92 46
100 100 100 100 100 100 100 100 100 100 100 100 100 100 100 100 100 100 100 97 83 100 100 100 100 100 100 100 100 100 100 100 100 100 100 100 100 100 100 100 100 76 18 5
100 100 100 100 100 100 100 100 100 100 100 100 100 100 100 100 100 100 100 100 100 100 100 100 100 100 100 100 100 100 100 100 100 100 100 100 100 100 82 79 10 5 4 5

GFSNW_prec_cloud_030.txt.gz
Cloud_Cover
100 100 87 24 100 100 94 100 100 85 89 100 32 100 100 100 91 5 5 0 3 5 3 0 5 2 5 5 0 4 11 10 6 36 7 70 9 12 7 9 60 10 16 0
98 100 99 100 100 100 99 100 100 62 11 98 3 25 78 100 97 5 3 3 6 15 3 5 4 5 5 5 3 3 3 67 95 74 28 78 62 100 77 22 59 73 6 1
100 100 100 31 100 100 100 100 100 100 100 6 78 76 100 100 100 11 3 36 25 44 5 27 5 5 3 2 2 20 5 5 9 49 10 10 99 67 20 14 26 5 5 1
100 100 66 100 100 100 100 100 100 41 100 94 96 100 100 100 14 4 56 45 10 55 98 23 5 4 10 5 54 100 93 6 7 99 98 5 70 15 20 7 5 2 0 4
100 100 40 100 100 100 100 100 100 67 9 100 100 100 100 100 100 72 82 100 100 100 91 18 7 82 25 88 5 28 44 5 9 5 2 0 1 0 0 0 94 5 4 2
70 47 27 100 100 100 100 100 95 100 9 100 51 35 100 100 100 100 71 100 97 47 98 40 100 100 68 5 3 0 5 5 5 4 0 0 0 0 0 0 4 25 26 5
5 16 98 100 100 100 92 100 98 100 15 95 29 100 100 100 100 100 100 100 100 100 99 100 100 100 90 4 0 1 5 68 5 1 0 1 0 0 0 0 0 0 0 4
5 99 100 100 100 100 98 100 100 98 42 93 100 100 91 100 98 100 100 80 100 100 52 95 99 100 4 5 5 0 31 85 77 5 5 0 0 0 0 0 0 0 5 4
41 31 92 100 100 100 57 100 100 100 98 46 100 100 100 100 100 44 99 100 57 100 100 78 87 100 92 12 5 5 5 5 39 21 4 2 1 4 0 0 4 5 5 5
5 5 35 99 98 100 48 100 100 100 100 100 100 100 100 100 100 100 100 90 100 100 100 100 100 100 3 11 35 2 74 10 26 45 5 4 4 4 4 5 58 30 6 5
5 5 72 99 95 100 33 100 100 100 100 94 100 100 100 100 100 100 100 100 51 100 100 100 100 72 39 5 3 25 94 30 42 70 74 5 5 5 5 22 32 5 5 16
20 67 98 94 100 100 44 40 100 100 100 100 68 100 100 100 100 100 100 96 100 100 100 100 100 95 31 67 10 16 98 10 10 26 82 75 47 61 21 5 5 6 40 52
56 100 100 97 100 100 20 100 100 100 100 100 75 35 100 96 99 100 96 100 99 100 100 100 100 100 99 32 100 22 100 26 49 55 95 100 58 32 7 11 42 30 41 88
90 100 100 100 100 98 14 96 99 100 100 100 100 20 3 0 4 96 58 99 100 100 100 100 100 88 89 100 100 100 55 20 84 88 96 46 100 80 56 69 100 100 100 100
100 68 100 100 100 42 94 100 100 100 100 100 44 53 4 0 5 28 92 100 100 100 100 83 90 94 100 70 54 100 92 34 38 96 97 77 58 48 55 79 100 100 100 100
100 100 100 40 17 43 100 100 100 100 100 100 100 98 19 10 42 98 100 100 100 100 100 100 98 100 100 99 100 100 65 6 49 100 100 78 70 47 47 92 100 100 100 87
100 96 85 33 39 97 54 39 46 100 100 100 100 100 78 56 100 100 100 100 100 100 100 100 100 100 100 100 100 100 100 66 49 17 75 97 100 100 100 94 83 100 100 96
23 100 99 55 99 100 100 93 100 100 100 100 100 100 100 95 97 100 100 100 100 100 100 100 100 100 100 100 100 100 100 100 100 65 30 21 39 81 90 96 100 100 100 95
18 31 99 100 100 100 100 100 100 100 100 100 100 100 100 100 100 89 60 88 100 100 100 100 100 100 100 100 100 100 100 100 100 100 63 33 50 20 43 47 54 68 19 5
100 100 100 96 100 100 100 100 100 100 100 100 100 100 100 100 100 100 100 100 100 100 100 100 100 100 8 96 100 100 100 100 100 100 100 92 6 47 32 14 28 56 11 63
100 100 100 100 100 100 100 100 100 100 100 100 100 100 100 100 100 100 100 100 100 100 100 100 100 100 100 83 100 100 100 100 100 100 100 100 100 31 72 97 67 82 92 100
100 100 100 100 100 100 100 100 100 100 100 100 100 100 91 100 100 100 100 100 100 100 100 100 100 100 100 100 100 100 100 100 100 100 100 100 100 100 100 97 100 100 100 100
100 100 100 100 100 100 100 100 100 100 100 100 100 100 100 100 100 100 100 100 100 100 100 100 100 100 100 100 100 100 100 100 100 100 100 100 100 100 99 100 99 100 100 100
100 100 100 100 100 100 100 100 100 100 100 100 100 100 100 100 100 100 100 100 100 100 89 51 100 100 100 100 100 100 100 100 100 100 100 100 100 100 100 100 100 100 100 100
100 100 100 100 100 100 100 100 100 100 100 100 100 100 100 100 100 100 97 100 97 74 99 100 100 100 100 100 100 100 100 100 100 100 100 100 100 100 100 100 100 100 100 100
100 100 100 100 100 100 100 100 100 100 100 99 100 100 100 100 100 100 100 100 100 100 100 100 100 100 100 100 100 100 100 99 100 100 100 100 100 100 100 100 100 100 100 100
100 100 100 100 100 100 100 100 100 100 100 100 100 100 100 100 100 100 100 100 100 100 100 100 100 100 100 100 100 100 100 100 100 100 100 100 100 100 100 100 100 100 100 100

GFSNW_prec_cloud_033.txt.gz
Cloud_Cover
6 100 100 100 100 100 100 97 93 99 100 100 86 52 99 100 100 99 5 3 12 6 5 5 5 0 0 0 5 2 0 0 0 8 5 2 76 58 14 5 38 21 2 62
20 100 100 96 99 100 99 100 99 87 99 99 57 96 42 100 100 5 5 5 11 32 100 53 4 1 0 0 0 2 0 0 0 5 5 5 5 0 14 5 26 6 4 5
100 100 100 100 100 100 100 100 100 100 96 47 100 79 99 100 100 99 84 33 10 37 100 22 5 0 0 0 0 0 0 0 1 4 5 55 26 0 1 5 20 5 28 4
100 100 100 100 98 100 100 100 97 100 100 76 100 100 100 100 100 9 3 1 5 63 100 100 5 5 0 0 4 4 5 3 5 5 5 10 5 5 4 1 5 5 20 20
100 100 99 100 100 100 100 100 91 99 100 100 100 100 100 100 100 30 5 5 84 100 100 96 100 5 0 1 0 76 3 3 5 5 1 0 5 80 100 23 5 3 5 5
100 100 100 100 100 100 100 97 100 100 100 100 100 96 100 100 100 100 100 100 100 100 100 99 100 5 2 72 10 10 30 1 2 0 0 1 8 0 0 0 0 0 1 2
100 99 100 100 95 9 90 70 96 100 56 88 98 100 100 100 100 100 100 100 100 100 100 100 100 5 14 96 43 65 51 5 4 0 0 4 5 0 0 0 0 0 1 0
100 94 89 5 5 5 100 68 99 100 100 93 100 100 100 100 100 100 100 100 100 100 100 17 6 66 13 5 39 18 5 0 0 0 1 4 5 0 0 0 0 4 1 0
100 100 24 5 2 100 100 100 72 100 100 92 100 100 100 100 100 100 100 91 100 91 48 96 16 86 93 11 100 11 35 5 0 8 0 4 90 2 0 0 5 5 5 5
100 100 100 5 30 100 100 100 100 92 100 56 100 100 100 100 100 100 100 100 100 15 78 57 100 100 64 46 100 100 5 6 0 25 0 13 5 2 5 4 10 1 4 5
100 100 58 43 100 100 100 100 100 100 100 100 52 65 100 100 100 100 100 100 96 96 100 100 100 86 76 100 100 100 6 10 38 2 2 68 4 11 5 4 0 2 5 5
100 40 14 99 100 100 100 100 100 100 83 100 30 24 80 100 100 100 100 100 100 100 100 100 100 100 100 100 100 100 11 6 44 0 5 35 5 5 5 5 5 5 5 5
100 100 5 97 100 99 100 100 100 100 100 56 62 92 81 100 100 100 100 100 100 100 100 100 100 100 100 100 100 99 6 4 5 5 83 62 43 9 5 5 5 5 5 8
50 85 10 5 24 99 100 100 100 100 99 95 1 48 34 100 52 100 100 100 100 100 100 100 100 100 100 100 100 100 72 5 72 100 100 81 98 81 32 18 7 7 9 32
43 69 9 62 75 100 100 100 100 100 58 100 50 100 93 97 69 100 100 100 100 100 100 100 100 100 100 100 100 100 56 100 100 100 100 92 75 99 100 100 100 100 100 100
99 56 76 100 100 100 100 100 100 70 100 100 100 63 16 18 93 100 100 100 100 100 100 100 99 100 100 100 44 52 100 100 100 100 100 98 62 100 100 100 100 100 100 100
96 100 100 88 70 86 100 74 64 99 100 100 100 100 100 100 24 61 100 100 99 97 92 99 100 100 100 100 99 100 100 100 100 100 100 100 100 99 79 62 77 92 97 100
100 100 100 100 100 98 94 100 100 100 100 100 100 89 76 89 100 98 75 76 99 98 100 100 100 100 100 100 100 100 100 100 100 100 100 100 100 100 100 93 14 5 9 15
83 96 94 96 73 68 94 100 100 100 100 100 100 99 100 100 100 100 100 100 100 100 100 98 100 100 100 100 100 100 100 100 100 100 100 100 100 100 100 96 74 86 93 52
90 52 77 100 100 10 39 100 100 100 100 100 100 100 100 100 100 100 100 100 100 100 100 100 100 100 100 100 100 100 100 100 100 100 100 100 100 87 100 100 100 84 100 100
97 100 100 100 100 100 100 100 100 100 100 100 100 100 100 100 100 100 100 100 100 100 100 98 100 100 100 100 100 100 100 100 100 100 99 100 100 100 99 93 100 100 100 100
100 100 100 100 100 100 100 100 100 100 100 100 100 100 100 100 100 100 100 100 100 100 97 82 100 100 100 100 100 100 100 100 100 100 96 100 100 100 100 100 100 100 100 100
100 100 100 100 100 100 100 100 100 100 100 100 100 100 100 100 100 100 100 100 100 100 100 100 100 100 100 100 100 100 100 100 100 100 100 100 100 100 100 100 100 100 100 100
100 100 100 100 100 100 100 100 100 100 100 100 100 100 100 100 100 100 100 100 100 100 100 90 100 100 100 100 100 100 100 100 100 100 100 100 100 100 100 100 100 100 100 100
100 100 100 100 100 100 100 100 100 100 100 100 100 100 100 100 100 99 98 100 100 99 99 100 100 100 100 100 100 100 100 100 100 100 100 100 100 100 100 100 100 100 100 100
100 100 100 100 100 100 100 100 100 100 100 100 100 100 100 100 100 90 100 100 100 100 100 100 100 100 100 100 100 100 100 100 100 100 100 100 100 100 100 100 100 100 100 100
100 100 100 100 100 100 100 100 100 100 100 100 100 100 100 99 100 100 100 100 100 100 100 100 100 100 100 100 100 100 100 100 100 100 100 100 100 100 100 100 100 100 100 100

GFSNW_prec_cloud_036.txt.gz
Cloud_Cover
100 86 9 3 100 100 100 100 95 98 100 100 100 100 99 100 100 37 95 92 95 9 0 5 5 5 10 5 5 0 0 0 1 3 72 4 0 56 5 5 58 100 14 78
100 100 87 8 100 100 61 100 98 100 100 99 99 96 100 100 100 87 100 92 93 8 5 5 5 15 5 100 86 1 0 0 0 0 0 0 0 3 2 5 5 5 5 14
100 100 100 100 100 100 80 100 100 100 100 47 5 54 88 84 100 100 100 100 100 26 6 5 5 23 11 100 99 5 5 0 0 0 1 4 0 1 2 2 5 3 8 5
100 100 100 100 100 100 98 100 100 35 100 82 15 18 5 38 93 96 100 100 100 100 100 14 26 7 27 100 84 4 3 0 0 0 78 2 0 8 5 5 5 16 7 7
100 100 100 100 100 100 100 100 97 71 7 94 95 100 100 100 100 70 60 99 100 100 100 83 100 56 100 97 32 5 5 0 0 1 4 4 0 0 5 56 57 71 6 83
100 100 100 100 100 100 100 69 81 44 22 53 85 60 100 100 100 100 100 100 100 100 100 100 100 100 53 100 100 5 2 0 0 4 5 5 0 0 0 0 4 5 1 0
100 100 100 100 100 59 5 30 77 91 50 95 18 100 100 100 100 100 100 100 100 100 100 100 100 81 96 94 99 5 20 15 6 41 97 15 0 0 0 0 0 0 0 0
100 100 100 100 100 19 5 30 96 100 100 47 56 100 100 100 100 100 100 100 100 100 100 100 100 100 86 100 40 5 5 63 96 84 5 2 0 0 0 0 1 0 0 0
100 100 100 100 99 100 16 25 100 100 100 34 80 100 100 100 100 100 100 100 100 100 99 100 87 60 13 71 96 59 19 90 98 13 3 0 1 0 0 0 7 0 0 0
100 100 100 100 100 100 97 4 100 100 100 90 31 5 5 100 100 100 100 100 100 100 100 99 90 83 100 68 79 100 100 63 9 15 5 5 0 0 0 4 3 0 0 0
100 100 100 100 100 88 66 4 100 96 100 99 98 13 5 100 100 100 100 100 100 100 26 30 91 100 94 100 100 100 100 94 10 52 2 5 2 0 0 0 0 0 3 0
100 100 100 100 100 76 98 8 76 86 100 95 100 98 89 89 100 100 100 100 100 100 100 90 69 100 79 100 100 100 100 100 94 26 5 4 98 5 0 0 4 5 5 5
100 100 100 100 100 70 20 46 100 100 100 100 100 69 57 82 100 100 100 100 100 100 100 100 100 100 100 100 100 100 100 100 30 16 41 5 64 2 0 4 5 5 5 5
100 100 100 100 100 100 91 26 94 100 100 100 100 91 89 34 100 100 100 100 100 100 100 100 99 100 100 100 100 100 91 22 99 80 99 22 5 9 49 90 92 45 5 5
100 100 100 100 100 99 10 95 100 100 100 100 99 64 4 63 100 100 100 100 100 100 100 100 100 100 100 100 100 100 97 100 100 100 87 14 99 100 100 100 100 100 61 23
100 100 100 100 100 100 100 100 100 99 100 100 100 81 20 93 100 100 100 100 100 100 100 100 100 100 100 100 100 100 100 100 100 100 100 100 100 100 100 100 100 100 100 100
100 100 100 100 84 98 62 100 77 40 43 100 100 60 93 93 100 91 33 100 96 100 100 100 100 100 100 100 100 100 100 100 100 100 100 100 100 100 100 100 100 100 100 100
64 46 40 68 100 94 98 84 100 100 100 100 94 100 10 54 100 100 99 72 72 100 100 100 100 100 100 100 100 100 100 100 100 100 100 100 100 100 100 100 100 100 94 83
69 93 100 100 100 79 7 39 75 54 80 32 98 79 98 100 100 100 87 23 91 100 100 100 100 100 100 100 100 100 100 100 100 100 100 100 100 100 100 100 100 100 74 76
88 35 41 90 0 47 33 100 100 100 76 95 100 100 100 100 100 100 93 89 98 99 100 100 100 100 100 100 100 100 100 100 100 100 100 100 100 100 100 100 80 100 95 86
16 15 77 49 100 100 100 100 100 100 100 100 100 100 100 100 100 100 100 97 86 98 100 100 100 100 100 100 100 100 100 100 100 100 100 100 100 100 100 100 100 100 100 98
100 100 100 99 100 100 100 100 100 100 100 100 100 100 100 100 100 100 100 100 100 96 100 100 100 100 100 100 100 100 100 100 100 100 98 84 100 100 100 100 100 100 100 100
100 100 100 100 100 100 100 100 100 100 100 100 100 100 100 100 100 100 100 100 100 100 100 100 100 100 100 100 100 100 100 87 94 93 100 100 100 100 100 100 100 100 100 100
100 100 100 100 100 100 100 100 100 100 100 100 100 100 100 100 100 100 100 100 100 100 100 100 100 100 100 100 100 100 100 100 100 100 100 100 100 100 100 100 100 100 100 100
97 100 100 100 100 100 100 100 100 100 100 100 100 100 100 100 100 100 100 100 100 100 100 100 100 100 100 100 100 100 100 100 100 100 100 100 100 100 100 100 100 100 100 100
100 100 100 100 100 100 100 100 100 100 100 100 100 100 100 100 100 100 100 100 100 100 100 100 100 100 100 100 100 100 100 100 100 100 100 100 100 100 100 100 100 100 100 100
100 100 100 100 100 100 100 100 100 100 100 100 100 100 100 100 100 100 100 100 100 100 100 100 100 100 100 100 100 100 100 100 100 100 100 100 100 100 100 100 100 100 100 100